User: anonymous   Login
Location: Unspecified
(0.0000°N, 0.0000°E)
Time: 12:49:23
(UTC+00:00)
Language:

NOSS 2-2 (C) - Orbit

View from above orbital plane
View from above orbital plane
View from above satellite
View from above satellite

Ground track
Ground track

The orbit data is extracted from the following two-line orbital elements,

1 21799U 91076C   17075.78141503 0.00000050  00000-0  17388-4 0    09
2 21799  63.3630 338.6032 0734000  24.3416 335.6709 13.41089757    08
Epoch (UTC): 16 March 2017 18:45:14
Eccentricity: 0.0734000
inclination: 63.3630°
perigee height: 556 km
apogee height: 1654 km
right ascension of ascending node: 338.6032°
argument of perigee: 24.3416°
revolutions per day: 13.41089757
mean anomaly at epoch: 335.6709°
orbit number at epoch: 0

The dashed part of the orbit path shows where the satellite is in the earth's shadow,  

DLR